Regional Weather Roundup
Issued by NWS New Orleans/Baton Rouge, LA

Home | Current Version | Previous Version | Text Only | Print | Product List | Glossary On
Versions: 1 2 3 4 5 6 7 8 9 10 11 12 13 14 15 16 17 18 19 20 21 22 23 24 25 26 27 28 29 30 31 32 33 34 35 36 37 38 39 40 41 42 43 44 45 46 47 48 49 50
000
ASUS44 KLIX 280410
RWRLIX
NEW ORLEANS REGIONAL WEATHER ROUNDUP
NATIONAL WEATHER SERVICE NEW ORLEANS LA
1000 PM CST THU NOV 27 2014

NOTE: "FAIR" INDICATES FEW OR NO CLOUDS BELOW 12,000 FEET WITH NO
      SIGNIFICANT WEATHER AND/OR OBSTRUCTIONS TO VISIBILITY.
      SKY/WX - SKY CONDITION AND SIGNIFICANT WEATHER.
      TMP - AIR TEMPERATURE.     DP    - DEWPOINT TEMPERATURE.
      RH  - RELATIVE HUMIDITY.   PRES  - PRESSURE.
      HI  - HEAT INDEX.          WCI   - WIND CHILL INDEX.

*  THESE STATIONS ARE NOT NWS OR FAA STATIONS AND ARE NOT UNDER
   NWS QUALITY CONTROL.

LAZ038-040-048-061>063-065>067-069-280500-
SOUTHEAST LOUISIANA

CITY           SKY/WX    TMP DP  RH WIND       PRES   REMARKS
N.O. AUDUBON     N/A     50  36  58 MISG        N/A
N.O. INTL ARPT CLEAR     51  34  52 NE10      30.45R
N.O. LAKEFRONT CLEAR     53  35  50 NE17      30.45S
N.O. DOWNTOWN*   N/A     52  30  43 NE3       30.45S
SLIDELL        CLEAR     38  34  85 CALM      30.45S
BATON ROUGE    CLEAR     43  32  65 N3        30.45S
BOOTHVILLE     CLEAR     54  39  57 N9G16     30.44R
BELLE CHASSE   CLEAR     42  33  70 CALM      30.45R
BOGALUSA*        N/A     37  33  87 CALM      30.48S
NEW ROADS*       N/A     40  33  75 N6        30.46S
GONZALES*        N/A     42  37  83 CALM      30.45R
HAMMOND*       CLEAR     45  32  61 NE5       30.46F
HOUMA*         CLEAR     43  34  71 CALM      30.44S HAZE
PORT FOURCHON* CLEAR     54  39  58 NE14      30.47S

$$

MSZ070-080>082-280500-
SOUTHERN MISSISSIPPI

CITY           SKY/WX    TMP DP  RH WIND       PRES   REMARKS
MCCOMB         CLEAR     42  30  62 N5        30.46R
GULFPORT       CLEAR     43  33  68 N6        30.44F
BILOXI         CLEAR     44  34  68 VRB2      30.45S
PASCAGOULA     CLEAR     39  32  76 CALM      30.45S

$$

COASTAL OBSERVATIONS
LAKE AND NEARSHORE STATIONS

STATION/POSITION TIME  TEMP    WIND        PRES    WAVE
                       AIR SEA DIR/SP/G            HT/PER
                 (UTC) (F)     (DEG/KT/KT) (MB)    (FT/S)
PASCAGOULA       0400   46      20/  7/ 10 1030.3
WAVELAND YACHT   0400   49      30/ 11/ 13 1030.0
GRAND ISLE       0400   54 59   40/ 11/ 15 1031.0
SOUTHWEST PASS   0400   54                 1030.5
NEW CANAL        0400   52 54   40/ 16/ 18 1031.1
SHELL BEACH      0400   53 52   40/ 15/ 17 1030.6

OFFSHORE STATIONS

STATION/POSITION TIME  TEMP    WIND        PRES    WAVE
                       AIR SEA DIR/SP/G            HT/PER
                 (UTC) (F)     (DEG/KT/KT) (MB)    (FT/S)
64 S DAUPHIN ISL 0332   57 71   20/ 19/ 23 1030.4    5/ 6

$$




USA.gov is the U.S. government's official web portal to all federal, state and local government web resources and services.